Location: Ivry
(49.2287°N, 2.0306°E)
Time: 09:53:47
(UTC+00:00)

Daily predictions for brighter satellites

Satellite Brightness Start Highest point End
(mag) Time Altitude Azimuth Time Altitude Azimuth Time Altitude Azimuth
Cosmos 2084 Rocket 3.4 16:37:11 10° SW 16:41:21 81° SE 16:45:34 10° NE
Cosmos 2100 Rocket 4.4 16:37:19 10° SSW 16:43:27 68° WNW 16:49:36 10° N
ATLAS CENTAUR R/B 2.5 16:40:51 10° W 16:43:53 28° NW 16:46:56 10° NNE
Cosmos 1441 Rocket 3.1 16:42:32 10° NNW 16:45:53 73° W 16:49:13 10° S
SAR-Lupe-4 4.0 16:43:06 10° SE 16:46:27 39° ENE 16:49:50 10° N
Cosmos 2221 Rocket 4.3 16:42:05 10° NNW 16:46:31 60° W 16:50:52 10° S
Cosmos 1833 Rocket 2.9 16:40:59 10° NNW 16:46:40 82° WSW 16:52:19 10° SSE
ARIANE 5 R/B 2.7 16:42:24 10° SE 16:47:09 47° ENE 16:51:57 10° N
USA 215 3.4 16:48:15 10° ESE 16:54:48 87° SSW 17:01:24 10° WNW
Timation 1 Rocket 4.5 16:49:10 10° NNW 16:55:00 53° NE 17:00:49 10° SE
IRS-P3 4.4 16:52:55 10° SE 16:57:56 44° ENE 17:02:59 10° N
MOS 1 Rocket 3.8 16:56:15 10° SE 17:00:05 31° ENE 17:04:05 10° N
ATLAS 5 CENTAUR R/B 2.3 16:56:05 10° NW 17:00:23 63° SW 17:05:43 10° SSE
Cosmos 1484 Rocket 4.0 17:00:41 10° S 17:04:02 42° W 17:07:26 10° NNW
Iridium 4 Rocket 4.2 17:01:18 10° SSW 17:06:13 53° W 17:10:46 10° N
Resurs 01 Rocket 3.6 17:08:57 10° NE 17:08:57 10° NE 17:09:13 10° NE
Cosmos 2233 Rocket 4.0 17:02:14 10° S 17:08:33 83° E 17:14:55 10° N
RESURS DK-1 2.3 17:05:13 10° NNW 17:09:12 57° ENE 17:13:07 10° SE
Cosmos 1602 4.3 17:07:02 10° NNE 17:09:31 22° ENE 17:11:59 10° SE
Cosmos 407 Rocket 3.8 17:04:39 10° S 17:09:33 45° ESE 17:14:27 10° NE
Cosmos 1725 Rocket 4.4 17:03:19 10° SSW 17:09:34 70° WNW 17:15:55 10° N
Cosmos 2061 Rocket 4.0 17:04:46 10° S 17:11:04 79° E 17:17:19 10° NNE
ISS -3.1 17:11:52 10° SW 17:15:02 42° SSE 17:17:12 18° E
Cosmos 1782 Rocket 3.7 17:10:53 10° SSW 17:15:20 80° W 17:19:47 10° N
CZ-2D R/B 2.6 17:13:08 10° SSE 17:16:17 71° ENE 17:19:26 10° N
Cosmos 1869 3.2 17:13:43 10° SSE 17:17:06 46° E 17:20:28 10° NNE
ERS-1 4.5 17:13:10 10° SSE 17:18:17 72° ENE 17:23:23 10° NNW
USA 281 4.4 17:15:06 14° ENE 17:18:51 22° NE 17:23:36 10° N
SPOT 1/Viking Rocket 4.0 17:14:20 10° SE 17:19:06 39° ENE 17:23:55 10° N
Cosmos 1300 Rocket 4.0 17:15:10 10° SSW 17:19:31 65° WNW 17:23:53 10° N
COSMO-SKYMED 1 3.8 17:21:26 18° ENE 17:22:40 20° E 17:25:43 10° SE
SJ-12 3.6 17:19:18 10° SSE 17:23:05 83° ENE 17:26:54 10° NNW
AQUARIUS 4.0 17:22:30 10° SSE 17:26:54 74° ENE 17:31:19 10° N
SL-12 R/B(2) 4.4 17:19:35 10° SSW 17:27:25 65° ESE 17:36:58 10° NE
Cosmos 540 Rocket 3.4 17:24:06 10° NNW 17:29:16 80° ENE 17:34:23 10° SSE
BREEZE-M DEB (TANK) 2.4 17:26:57 10° SW 17:29:21 54° SSE 17:32:21 20° E
Cosmos 1400 Rocket 3.8 17:28:08 10° SE 17:31:08 22° E 17:31:12 22° E
Cosmos 1975 Rocket 3.5 17:28:19 10° NNW 17:32:38 64° W 17:36:57 10° S
Spot 4 Rocket 4.3 17:28:06 10° SE 17:32:54 43° ENE 17:37:44 10° N
Cosmos 1763 Rocket 3.6 17:29:30 10° NNW 17:34:45 80° WSW 17:39:52 10° SSE
Cosmos 1812 2.2 17:33:39 10° S 17:36:27 46° E 17:37:34 29° NE
Cosmos 1140 Rocket 4.1 17:36:23 10° SW 17:41:29 56° WNW 17:46:33 10° NNE
Cosmos 2151 Rocket 4.0 17:37:33 10° SSE 17:41:43 39° E 17:45:29 12° NNE
Cosmos 2058 2.7 17:38:44 10° N 17:42:41 60° ENE 17:46:37 10° SSE
SMAP 4.1 17:38:32 10° S 17:43:02 48° W 17:47:33 10° NNW
Cosmos 44 Rocket 3.3 17:39:35 10° SSW 17:44:16 58° ESE 17:47:07 24° NE
Cosmos 1943 Rocket 2.1 17:43:41 10° SSW 17:49:17 79° ESE 17:54:09 14° NNE
SKYMED 2 3.7 17:45:23 11° NNE 17:49:30 51° E 17:53:44 10° S
Helios 1A Rocket 3.5 17:51:57 28° SE 17:51:57 28° SE 17:54:10 10° SSE
Okean 1 Rocket 3.7 17:47:45 10° SSE 17:51:39 32° E 17:51:43 32° E
CZ-2D R/B 3.3 17:47:49 10° SSE 17:51:55 67° ENE 17:56:07 10° N
SJ-7 4.2 17:48:22 10° SSE 17:51:56 50° ENE 17:55:31 10° N
IRAS Rocket 4.2 17:46:55 10° SSE 17:52:24 64° ENE 17:57:52 10° NNW
Sich 1 Rocket 4.2 17:48:36 10° SSE 17:52:41 34° E 17:53:29 32° ENE
Cosmos 2082 Rocket 2.1 17:47:46 10° NNW 17:53:25 80° ENE 17:59:02 10° SSE
PSLV R/B 3.5 17:49:37 10° SE 17:53:31 49° ENE 17:57:25 10° N
Cosmos 1072 Rocket 4.4 17:51:35 10° S 17:57:39 66° E 18:03:42 10° NNE
Cosmos 2026 Rocket 4.3 17:52:07 10° N 17:57:47 39° ENE 18:03:28 10° SE
Cosmos 2278 Rocket 2.1 17:52:24 10° SSW 17:58:04 86° ESE 18:02:47 15° NNE
NOAA 6 4.2 17:55:21 10° SE 18:00:17 49° ENE 18:05:14 10° N
BREEZE-M DEB (TANK) 3.3 17:58:19 10° SW 18:01:05 58° SSE 18:03:16 32° E
Aureole 3 Rocket 2.3 17:58:09 10° SSW 18:01:09 75° W 18:03:11 20° N
BREEZE-M DEB (TANK) 2.8 17:59:27 10° WSW 18:02:01 86° SSE 18:04:09 33° ENE
SL-16 R/B 4.2 18:00:06 10° N 18:05:31 32° WNW 18:10:56 10° WSW
Geosat 4.1 18:04:10 31° ESE 18:06:13 51° NE 18:11:04 10° NNW
Cosmos 2251 Rocket 3.4 18:03:37 10° SSW 18:08:54 79° ESE 18:12:38 20° NNE
YAOGAN 1 2.4 18:07:07 10° SSE 18:11:22 79° ENE 18:15:39 10° N
Cosmos 371 Rocket 3.5 18:07:56 10° S 18:12:30 46° ESE 18:12:52 46° E
Cosmos 304 Rocket 3.9 18:09:02 10° S 18:13:35 49° ESE 18:13:57 48° E
Cosmos 841 Rocket 3.4 18:09:14 10° NNW 18:14:29 64° ENE 18:17:15 28° SE
SJ 16-02 1.2 18:10:53 10° S 18:15:08 63° ESE 18:15:42 56° ENE
SL-19 R/B 4.0 18:10:24 10° SSE 18:15:36 84° ENE 18:20:53 10° NNW
CZ-4C R/B 3.9 18:15:42 10° WNW 18:19:50 22° N 18:22:36 17° NNE
Nadezhda 4 Rocket 3.9 18:13:39 10° N 18:19:59 89° W 18:26:13 10° S
Cosmos 1862 3.4 18:18:45 10° NNW 18:22:21 65° W 18:25:57 10° S
Resurs 1-3 3.5 18:19:03 10° SSE 18:23:21 85° W 18:27:41 10° NNW
ATLAS 2AS CENTAUR R/B 3.0 18:17:41 10° NW 18:24:10 44° NNE 18:25:35 39° ENE
COSMOS 2406 3.1 18:20:29 10° NNW 18:26:12 79° ENE 18:29:07 30° SE
Cosmos 1627 Rocket 4.4 18:22:21 10° N 18:28:26 61° ENE 18:34:31 10° SSE
Cosmos 1656 Rocket 4.1 18:24:04 10° S 18:28:33 42° SE 18:28:33 42° SE
Cosmos 2195 Rocket 4.4 18:27:31 10° N 18:33:53 80° E 18:40:13 10° SSE
Cosmos 1536 Rocket 4.2 18:30:06 10° NNW 18:34:27 55° W 18:38:45 10° S
Okean 2 Rocket 3.1 18:32:06 10° SSW 18:36:29 77° W 18:37:52 43° N
Cosmos 1190 Rocket 4.2 18:34:32 10° SSW 18:39:49 71° WNW 18:42:26 30° NNE
Cosmos 2344 3.8 18:34:35 10° NW 18:42:26 77° NE 18:47:32 33° SE
Cosmos 676 Rocket 3.9 18:37:24 10° SSW 18:42:42 80° ESE 18:43:16 70° NE
Resurs 01 Rocket 3.2 18:46:22 25° N 18:46:22 25° N 18:48:14 10° N
Meteor 2-3 Rocket 3.6 18:40:03 10° NNW 18:45:47 90° ENE 18:49:59 19° S
Cosmos 2297 Rocket 4.5 18:47:43 10° N 18:48:17 11° N 18:48:17 11° N
ISS -1.6 18:48:25 10° W 18:50:07 27° W 18:50:07 27° W
Cosmos 1954 Rocket 4.2 18:47:32 10° SSW 18:52:47 68° WNW 18:54:18 45° N
COSMO-SKYMED 1 3.4 18:57:48 43° NW 18:58:12 45° WNW 19:02:07 10° SW
USA 281 3.0 19:02:00 70° E 19:02:24 72° ENE 19:08:59 10° NNW
Cosmos 1943 Rocket 4.1 19:29:09 10° W 19:33:39 24° NW 19:35:40 20° NNW
Cosmos 2278 Rocket 4.2 19:38:28 10° W 19:42:53 23° NW 19:44:37 20° NNW
SJ 16-02 4.1 19:50:40 10° W 19:52:17 16° WNW 19:52:17 16° WNW
CZ-4C R/B 4.4 20:05:10 10° NW 20:07:32 20° NNW 20:07:32 20° NNW
ATLAS 2AS CENTAUR R/B 3.7 20:08:42 10° NW 20:13:01 40° WNW 20:13:01 40° WNW
